Weather in Bolshoy Kaltay

Russia / Altai Krai     54°07′38″N   84°15′44″E
temp.,
°C
wind,
m/s
gust,
m/s
humid.,
%
clouds,
%
prec.,
mm/h
press.,
hPa
HPBL,
m
10 may, mon
mon1001:00+4ne411630 0.0 1021343
04:00+3ne412755 0.0 1021393
07:00+4ene412813 0.0 1022521
10:00+10ene710555 0.0 1021980
13:00+14ene78380 0.0 10191426
16:00+16ene67325 0.0 10181742
19:00+15ene5841100 0.0 10171743
22:00+10ne41155100 0.0 1017298
11 may, tue
tue1101:00+8ne41066100 0.0 1016335
04:00+5nne4117613 0.0 1016310
07:00+6nne512735 0.0 1016470
10:00+12ne69505 0.0 10151219
13:00+16ne68375 0.0 10142085
16:00+18ne6730100 0.0 10132871
19:00+17nne573899 0.0 10141501
22:00+12n6124848 0.0 1016447
12 may, wed
wed1201:00+10nne513627 0.0 1017428
04:00+8n411805 0.0 1017267
07:00+8n410806 0.0 1018289
10:00+15nne57495 0.0 1018845
13:00+18nne5634100 0.0 10172779
16:00+18n453442 0.0 10172229
19:00+16ne564492 0.0 10181689
22:00+12n225772 0.0 101926
13 may, thu
thu1301:00+9n116713 0.0 101910
04:00+8ene117314 0.0 101913
07:00+10se126764 0.0 101965
10:00+16ese22416 0.0 10181021
13:00+17se123392 0.0 10172223
16:00+19wnw223199 0.0 10162410
19:00+17w123985 0.0 10161590
22:00+11nw36675 0.0 101698
14 may, fri
fri1401:00+9wnw2476100 0.1 101671
04:00+9nw3982100 0.4 1015253
07:00+9wnw2687100 0.9 1015316
10:00+13nw67608 0.2 10151415
13:00+13nnw585888 0.3 10161551
16:00+13wnw595090 0.1 10172074
19:00+13nw683779 0.1 10181989
22:00+6n2247100 0.0 102221